64013000, 5301503, 2016-11-11 00:00:00, 13.35740, 109.26700,   0,   9,   3, 24.83, 1013.80, 15.00, 1,   1, 255, 0.000
64013000, 5301503, 2016-11-11 01:00:00, 13.35740, 109.26720,   0,  10,   1, 25.95, 1014.40, 15.00, 1,  19, 255, 0.000
64013000, 5301503, 2016-11-11 02:00:00, 13.35740, 109.26700,   0,  10,   4, 26.61, 1014.80, 15.00, 1,  20, 255, 0.000
64013000, 5301503, 2016-11-11 03:00:00, 13.35740, 109.26700,   0,   9,   1, 27.39, 1014.80, 15.00, 1,  12, 255, 0.000
64013000, 5301503, 2016-11-11 04:00:00, 13.35740, 109.26720,   0,   9,   2, 27.92, 1014.10, 15.00, 1,   4, 255, 0.000
64013000, 5301503, 2016-11-11 05:00:00, 13.35740, 109.26720,   0,   9,   1, 28.42, 1013.00, 15.00, 0,   8, 255, 0.000
64013000, 5301503, 2016-11-11 06:00:00, 13.35740, 109.26700,   0,  10,   1, 28.38, 1011.80, 15.00, 1,   7, 255, 0.000
64013000, 5301503, 2016-11-11 07:00:00, 13.35740, 109.26700,   0,  10,   1, 28.31, 1011.20, 15.00, 1,   8, 255, 0.000
64013000, 5301503, 2016-11-11 08:00:00, 13.35740, 109.26720,   0,  10,   6, 27.79, 1010.90, 15.00, 0,   1, 255, 0.000
64013000, 5301503, 2016-11-11 09:00:00, 13.35740, 109.26720,   0,   9,   1, 27.60, 1011.20, 15.00, 0,  15, 255, 0.000
64013000, 5301503, 2016-11-11 10:00:00, 13.35740, 109.26720,   0,   9,   4, 27.59, 1011.60, 15.00, 1,  11, 255, 0.000
64013000, 5301503, 2016-11-11 11:00:00, 13.35720, 109.26720,   0,   9,   2, 27.00, 1011.70, 15.00, 1,  23, 255, 0.000
64013000, 5301503, 2016-11-11 12:00:00, 13.35740, 109.26720,   0,   9,   2, 26.00, 1012.30, 15.00, 0,  11, 255, 0.000
64013000, 5301503, 2016-11-11 13:00:00, 13.35740, 109.26700,   0,   9,   2, 25.46, 1013.40, 15.00, 0,   1, 255, 0.000
64013000, 5301503, 2016-11-11 14:00:00, 13.35740, 109.26720,   0,  10,   1, 25.23, 1013.50, 15.00, 0,  11, 255, 0.000
64013000, 5301503, 2016-11-11 15:00:00, 13.35740, 109.26720,   0,   9,   2, 25.41, 1013.70, 15.00, 0,   1, 255, 0.000
64013000, 5301503, 2016-11-11 16:00:00, 13.35720, 109.26720,   0,   9,   2, 25.14, 1013.40, 15.00, 0,  15, 255, 0.000
64013000, 5301503, 2016-11-11 17:00:00, 13.35740, 109.26700,   0,  10,   2, 24.95, 1013.00, 15.00, 0,   1, 255, 0.000
64013000, 5301503, 2016-11-11 18:00:00, 13.35740, 109.26720,   0,  10,   1, 25.16, 1012.30, 15.00, 1,   1, 255, 0.000
64013000, 5301503, 2016-11-11 19:00:00, 13.35740, 109.26720,   0,   9,   2, 25.64, 1011.90, 15.00, 1,   9, 255, 0.000
64013000, 5301503, 2016-11-11 20:00:00, 13.35740, 109.26720,   0,   9,   1, 26.19, 1012.00, 15.00, 1,   1, 255, 0.000
64013000, 5301503, 2016-11-11 21:00:00, 13.35740, 109.26700,   0,  10,   2, 26.30, 1012.00, 15.00, 1,  12, 255, 0.000
64013000, 5301503, 2016-11-11 22:00:00, 13.35740, 109.26700,   0,   9,   1, 24.31, 1012.20, 15.00, 0,   8, 255, 0.000
64013000, 5301503, 2016-11-11 23:00:00, 13.35740, 109.26720,   0,   9,   2, 25.69, 1013.00, 15.00, 1,   4, 255, 0.000
64013000, 5301503, 2016-11-12 00:00:00, 13.35740, 109.26720,  63,   7,  12, 25.07, 1013.60, 15.00, 1,  22, 255, 0.000
64013000, 5301503, 2016-11-12 01:00:00, 13.35740, 109.26720,   0,  10,   2, -5.00, 1014.40, 15.00, 1,   4, 255, 0.000
64013000, 5301503, 2016-11-12 02:00:00, 13.35740, 109.26720,  63,  10,  12, -5.00, 1015.20, 15.00, 1,  26, 255, 0.000
64013000, 5301503, 2016-11-12 03:00:00, 13.35740, 109.26720,   0,   9,   2, -5.00, 1015.00, 15.00, 1,   1, 255, 0.000
64013000, 5301503, 2016-11-12 04:00:00, 13.35740, 109.26720,   0,   9,   2, -5.00, 1014.20, 15.00, 1,   4, 255, 0.000
64013000, 5301503, 2016-11-12 05:00:00, 13.35740, 109.26720,   0,   9,   3, -5.00, 1013.30, 15.00, 0,  15, 255, 0.000
64013000, 5301503, 2016-11-12 06:00:00, 13.35740, 109.26700,   0,   9,   2, -5.00, 1012.50, 15.00, 1,  11, 255, 0.000
64013000, 5301503, 2016-11-12 07:00:00, 13.35740, 109.26700,   0,   8,   7, -5.00, 1011.70, 15.00, 1,   8, 255, 0.000
64013000, 5301503, 2016-11-12 08:00:00, 13.35740, 109.26700,  61,   8,  12, -5.00, 1011.50, 15.00, 1,   8, 255, 0.000
64013000, 5301503, 2016-11-12 09:00:00, 13.35760, 109.26700,   0,   8,   5, -5.00, 1011.50, 15.00, 0,  11, 255, 0.000
64013000, 5301503, 2016-11-12 10:00:00, 13.35740, 109.26700,   0,   8,  11, -5.00, 1011.90, 15.00, 1,   4, 255, 0.000
64013000, 5301503, 2016-11-12 11:00:00, 13.35740, 109.26720,   0,  10,   2, -5.00, 1012.30, 15.00, 1,   4, 255, 0.000
64013000, 5301503, 2016-11-12 12:00:00, 13.35740, 109.26720,   0,   9,   1, -5.00, 1013.00, 15.00, 1,  22, 255, 0.000
64013000, 5301503, 2016-11-12 13:00:00, 13.35740, 109.26700,   0,   8,   3, -5.00, 1013.70, 15.00, 0,   8, 255, 0.000
64013000, 5301503, 2016-11-12 14:00:00, 13.35740, 109.26700,   0,   9,   7, -5.00, 1014.20, 15.00, 1,   8, 255, 0.000
64013000, 5301503, 2016-11-12 15:00:00, 13.35740, 109.26700,   0,   8,   2, -5.00, 1014.10, 15.00, 0,   9, 255, 0.000
64013000, 5301503, 2016-11-12 16:00:00, 13.35720, 109.26720,   0,   8,   1, -5.00, 1013.80, 15.00, 0,  20, 255, 0.000
64013000, 5301503, 2016-11-12 17:00:00, 13.35740, 109.26700,   0,   9,   5, -5.00, 1013.40, 15.00, 1,  17, 255, 0.000
64013000, 5301503, 2016-11-12 18:00:00, 13.35740, 109.26700,   0,  10,   2, -5.00, 1012.80, 15.00, 0,   7, 255, 0.000
64013000, 5301503, 2016-11-12 19:00:00, 13.35740, 109.26700,   0,  10,   1, -5.00, 1012.50, 15.00, 0,   8, 255, 0.000
64013000, 5301503, 2016-11-12 20:00:00, 13.35740, 109.26720,   0,   8,   6, -5.00, 1012.40, 15.00, 0,   8, 255, 0.000
64013000, 5301503, 2016-11-12 21:00:00, 13.35740, 109.26720,   0,   9,   2, -5.00, 1012.50, 15.00, 1,   8, 255, 0.000
64013000, 5301503, 2016-11-12 22:00:00, 13.35740, 109.26700,   0,   8,   2, -5.00, 1012.50, 15.00, 1,   7, 255, 0.000
64013000, 5301503, 2016-11-12 23:00:00, 13.35740, 109.26700,   0,  10,   6, -5.00, 1013.30, 15.00, 1,   8, 255, 0.000
64013000, 5301503, 2016-11-13 00:00:00, 13.35740, 109.26700,  61,   7,  12, -5.00, 1014.20, 15.00, 1,   7, 255, 0.000
64013000, 5301503, 2016-11-13 01:00:00, 13.35740, 109.26700,   0,   9,   5, -5.00, 1014.70, 15.00, 1,   7, 255, 0.000
64013000, 5301503, 2016-11-13 02:00:00, 13.35740, 109.26720,   0,  10,   7, -5.00, 1015.30, 15.00, 1,  10, 255, 0.000
64013000, 5301503, 2016-11-13 03:00:00, 13.35740, 109.26720,   0,   9,   6, -5.00, 1015.00, 15.00, 1,   8, 255, 0.000
64013000, 5301503, 2016-11-13 04:00:00, 13.35740, 109.26700,   0,   8,   2, -5.00, 1014.20, 15.00, 1,   8, 255, 0.000
64013000, 5301503, 2016-11-13 05:00:00, 13.35740, 109.26720,   0,   9,   4, -5.00, 1013.50, 15.00, 1,   7, 255, 0.000
64013000, 5301503, 2016-11-13 06:00:00, 13.35760, 109.26700,   0,  10,  10, -5.00, 1012.50, 15.00, 0,   7, 255, 0.000
64013000, 5301503, 2016-11-13 07:00:00, 13.35740, 109.26700,   0,  10,   6, -5.00, 1011.60, 15.00, 0,   8, 255, 0.000
64013000, 5301503, 2016-11-13 08:00:00, 13.35740, 109.26700,   0,   8,   2, -5.00, 1011.30, 15.00, 5,   9, 255, 0.000
64013000, 5301503, 2016-11-13 09:00:00, 13.35740, 109.26720,   0,   9,   1, -5.00, 1011.70, 15.00, 1,   4, 255, 0.000
64013000, 5301503, 2016-11-13 10:00:00, 13.35740, 109.26700,   0,   8,   1, -5.00, 1011.70, 15.00, 0,  14, 255, 0.000
64013000, 5301503, 2016-11-13 11:00:00, 13.35740, 109.26720,   0,  10,   2, -5.00, 1012.10, 15.00, 0,  23, 255, 0.000
64013000, 5301503, 2016-11-13 12:00:00, 13.35740, 109.26720,   0,   9,   1, -5.00, 1012.70, 15.00, 1,  28, 255, 0.000
64013000, 5301503, 2016-11-13 13:00:00, 13.35740, 109.26700,   0,  10,   2, -5.00, 1013.30, 15.00, 1,   1, 255, 0.000
64013000, 5301503, 2016-11-13 14:00:00, 13.35740, 109.26720,   0,   9,   2, -5.00, 1013.30, 15.00, 0,   7, 255, 0.000
64013000, 5301503, 2016-11-13 15:00:00, 13.35740, 109.26720,   0,   9,   3, -5.00, 1013.20, 15.00, 1,   8, 255, 0.000
64013000, 5301503, 2016-11-13 16:00:00, 13.35780, 109.26680,   0,  12,   1, -5.00, 1013.10, 15.00, 6,  13, 255, 0.000
64013000, 5301503, 2016-11-13 17:00:00, 13.35800, 109.26680,   0,  11,   1, -5.00, 1012.60, 15.00, 1,  10, 255, 0.000
64013000, 5301503, 2016-11-13 18:00:00, 13.35800, 109.26680,   0,  11,   1, -5.00, 1012.00, 15.00, 0,   8, 255, 0.000
64013000, 5301503, 2016-11-13 19:00:00, 13.35800, 109.26680,   0,  12,   1, -5.00, 1011.60, 15.00, 1,   7, 255, 0.000
64013000, 5301503, 2016-11-13 20:00:00, 13.35800, 109.26680,   0,  12,   1, -5.00, 1011.30, 15.00, 0,   9, 255, 0.000
64013000, 5301503, 2016-11-13 21:00:00, 13.35800, 109.26680,   0,  12,   1, -5.00, 1011.40, 15.00, 1,   7, 255, 0.000
64013000, 5301503, 2016-11-13 22:00:00, 13.35800, 109.26680,   0,  11,   1, -5.00, 1011.60, 15.00, 0,  10, 255, 0.000
64013000, 5301503, 2016-11-13 23:00:00, 13.35800, 109.26680,   0,  12,   2, -5.00, 1012.40, 15.00, 4,  11, 255, 0.000
64013000, 5301503, 2016-11-14 00:00:00, 13.35800, 109.26680,   0,  12,   1, -5.00, 1013.20, 15.00, 2,  11, 255, 0.000
64013000, 5301503, 2016-11-14 01:00:00, 13.35800, 109.26680,   0,  12,   2, -5.00, 1013.70, 15.00, 8,  10, 255, 0.000
64013000, 5301503, 2016-11-14 02:00:00, 13.35800, 109.26680,   0,  12,   3, -5.00, 1014.10, 15.00, 5,  11, 255, 0.000
64013000, 5301503, 2016-11-14 03:00:00, 13.35780, 109.26680,   0,  12,   1, -5.00, 1013.90, 15.00, 4,  11, 255, 0.000
64013000, 5301503, 2016-11-14 04:00:00, 13.35780, 109.26680,   0,  12,   1, -5.00, 1013.40, 15.00, 2,   1, 255, 0.000
64013000, 5301503, 2016-11-14 05:00:00, 13.35780, 109.26680,   0,  11,   2, -5.00, 1012.60, 15.00, 2,   9, 255, 0.000
64013000, 5301503, 2016-11-14 06:00:00, 13.35780, 109.26680,   0,  12,   1, -5.00, 1011.70, 15.00, 1,   9, 255, 0.000
64013000, 5301503, 2016-11-14 07:00:00, 13.35780, 109.26680,   0,  10,   1, -5.00, 1010.90, 15.00, 0,  20, 255, 0.000
64015370, 5301502, 2016-11-11 00:00:00, 18.65420, 113.49900,   0,  11,   8, 27.39, 1015.80, 15.00, 6,  12, 255, 0.000
64015370, 5301502, 2016-11-11 01:00:00, 18.65420, 113.49900,  60,  10,  12, 27.41, 1016.40, 15.00, 7,  11, 255, 0.000
64015370, 5301502, 2016-11-11 02:00:00, 18.66620, 113.48580,   0,  10,   9, 27.42, 1017.00, 15.00, 6,   9, 255, 0.000
64015370, 5301502, 2016-11-11 03:00:00, 18.67420, 113.47920,   0,  11,   8, 27.43, 1016.80, 15.00, 12,   9, 255, 0.000
64015370, 5301502, 2016-11-11 04:00:00, 18.68180, 113.47280,   0,  10,   7, 27.45, 1016.00, 15.00, 6,  14, 255, 0.000
64015370, 5301502, 2016-11-11 05:00:00, 18.68180, 113.47280,  61,  11,  12, 27.47, 1015.10, 15.00, 11,  14, 255, 0.000
64015370, 5301502, 2016-11-11 06:00:00, 18.69900, 113.46820,   0,  11,   4, 27.49, 1014.30, 15.00, 7,  11, 255, 0.000
64015370, 5301502, 2016-11-11 07:00:00, 18.70600, 113.46940,   0,  10,   7, 27.49, 1013.70, 15.00, 8,  11, 255, 0.000
64015370, 5301502, 2016-11-11 08:00:00, 18.71200, 113.47360,   0,  11,   5, 27.48, 1013.50, 15.00, 7,  18, 255, 0.000
64015370, 5301502, 2016-11-11 09:00:00, 18.71200, 113.47360,  62,  10,  12, 27.45, 1013.70, 15.00, 8,  12, 255, 0.000
64015370, 5301502, 2016-11-11 10:00:00, 18.71900, 113.48240,   0,  10,   7, 27.45, 1013.80, 15.00, 9,  12, 255, 0.000
64015370, 5301502, 2016-11-11 11:00:00, 18.72180, 113.48720,   0,  11,   4, 27.43, 1014.10, 15.00, 7,   8, 255, 0.000
64015370, 5301502, 2016-11-11 12:00:00, 18.72180, 113.48720,  62,  12,  12, 27.41, 1014.70, 15.00, 9,  11, 255, 0.000
64015370, 5301502, 2016-11-11 13:00:00, 18.72380, 113.49180,   0,  11,   8, 27.42, 1015.30, 15.00, 6,  14, 255, 0.000
64015370, 5301502, 2016-11-11 14:00:00, 18.72260, 113.49480,   0,  11,   4, 27.41, 1015.60, 15.00, 5,   9, 255, 0.000
64015370, 5301502, 2016-11-11 15:00:00, 18.71880, 113.49760,   0,  11,   3, 27.37, 1015.60, 15.00, 7,   4, 255, 0.000
64015370, 5301502, 2016-11-11 16:00:00, 18.71260, 113.49560,   0,  11,   3, 27.41, 1015.30, 15.00, 7,  10, 255, 0.000
64015370, 5301502, 2016-11-11 17:00:00, 18.70600, 113.48860,   0,  11,   6, 27.40, 1014.80, 15.00, 7,   9, 255, 0.000
64015370, 5301502, 2016-11-11 18:00:00, 18.70000, 113.48000,   0,  11,   8, 27.40, 1014.20, 15.00, 5,  11, 255, 0.000
64015370, 5301502, 2016-11-11 19:00:00, 18.69560, 113.47240,   0,  11,   8, 27.38, 1014.10, 15.00, 5,  10, 255, 0.000
64015370, 5301502, 2016-11-11 20:00:00, 18.69560, 113.47240,  61,  11,  12, 27.38, 1013.90, 15.00, 6,   1, 255, 0.000
64015370, 5301502, 2016-11-11 21:00:00, 18.68480, 113.46020,   0,  11,   6, 27.39, 1014.00, 15.00, 6,   9, 255, 0.000
64015370, 5301502, 2016-11-11 22:00:00, 18.67840, 113.45160,   0,  10,   8, 27.36, 1014.50, 15.00, 5,  16, 255, 0.000
64015370, 5301502, 2016-11-11 23:00:00, 18.67360, 113.44280,   0,  11,   6, 27.40, 1015.20, 15.00, 10,  11, 255, 0.000
64015370, 5301502, 2016-11-12 00:00:00, 18.67100, 113.43220,   0,  10,   8, 27.38, 1015.70, 15.00, 5,  12, 255, 0.000
64015370, 5301502, 2016-11-12 01:00:00, 18.67080, 113.42040,   0,  11,   8, 27.40, 1016.30, 15.00, 6,   7, 255, 0.000
64015370, 5301502, 2016-11-12 02:00:00, 18.67140, 113.40840,   0,  10,   6, 27.40, 1016.70, 15.00, 6,  13, 255, 0.000
64015370, 5301502, 2016-11-12 03:00:00, 18.67440, 113.39720,   0,  10,   5, 27.45, 1016.20, 15.00, 6,  11, 255, 0.000
64015370, 5301502, 2016-11-12 04:00:00, 18.67820, 113.38820,   0,  10,   4, 27.49, 1015.40, 15.00, 8,  11, 255, 0.000
64015370, 5301502, 2016-11-12 05:00:00, 18.68420, 113.37920,   0,  11,  11, 27.53, 1014.70, 15.00, 5,   8, 255, 0.000
64015370, 5301502, 2016-11-12 06:00:00, 18.69040, 113.37080,   0,  11,  10, 27.56, 1013.80, 15.00, 11,  13, 255, 0.000
64015370, 5301502, 2016-11-12 07:00:00, 18.69720, 113.36420,   0,  11,   7, 27.58, 1013.20, 15.00, 7,  12, 255, 0.000
64015370, 5301502, 2016-11-12 08:00:00, 18.70380, 113.36000,   0,  11,   8, 27.58, 1013.00, 15.00, 6,  10, 255, 0.000
64015370, 5301502, 2016-11-12 09:00:00, 18.71000, 113.35780,   0,   9,   7, 27.55, 1013.10, 15.00, 5,   9, 255, 0.000
64015370, 5301502, 2016-11-12 10:00:00, 18.71500, 113.35780,   0,  11,   4, 27.54, 1013.40, 15.00, 5,   9, 255, 0.000
64015370, 5301502, 2016-11-12 11:00:00, 18.71920, 113.35940,   0,  11,   6, 27.50, 1013.50, 15.00, 7,  11, 255, 0.000
64015370, 5301502, 2016-11-12 12:00:00, 18.72200, 113.36260,   0,  11,   5, 27.49, 1014.50, 15.00, 6,   9, 255, 0.000
64015370, 5301502, 2016-11-12 13:00:00, 18.72460, 113.36580,   0,  11,   6, 27.48, 1015.10, 15.00, 6,  11, 255, 0.000
64015370, 5301502, 2016-11-12 14:00:00, 18.72820, 113.36820,   0,  11,  10, 27.47, 1015.20, 15.00, 7,  18, 255, 0.000
64015370, 5301502, 2016-11-12 15:00:00, 18.73160, 113.36660,   0,  11,   8, 27.46, 1015.50, 15.00, 6,  11, 255, 0.000
64015370, 5301502, 2016-11-12 16:00:00, 18.73420, 113.36340,   0,  11,   5, 27.46, 1015.40, 15.00, 9,  15, 255, 0.000
64015370, 5301502, 2016-11-12 17:00:00, 18.73680, 113.35840,   0,  11,   9, 27.45, 1014.80, 15.00, 6,  12, 255, 0.000
64015370, 5301502, 2016-11-12 18:00:00, 18.73920, 113.35300,   0,  11,   6, 27.43, 1014.20, 15.00, 5,  17, 255, 0.000
64015370, 5301502, 2016-11-12 19:00:00, 18.74080, 113.34740,   0,   9,   6, 27.45, 1013.70, 15.00, 5,   7, 255, 0.000
64015370, 5301502, 2016-11-12 20:00:00, 18.74200, 113.34220,   0,  11,   8, 27.45, 1013.50, 15.00, 5,  11, 255, 0.000
64015370, 5301502, 2016-11-12 21:00:00, 18.74220, 113.33740,   0,  11,   4, 27.47, 1013.70, 15.00, 5,  11, 255, 0.000
64015370, 5301502, 2016-11-12 22:00:00, 18.74160, 113.33280,   0,  10,   7, 27.43, 1014.20, 15.00, 7,  11, 255, 0.000
64015370, 5301502, 2016-11-12 23:00:00, 18.74040, 113.33020,   0,  10,   5, 27.45, 1014.70, 15.00, 7,  20, 255, 0.000
64015370, 5301502, 2016-11-13 00:00:00, 18.73800, 113.32720,   0,  11,   2, 27.47, 1015.20, 15.00, 6,  11, 255, 0.000
64015370, 5301502, 2016-11-13 01:00:00, 18.73440, 113.32580,   0,  10,   6, 27.48, 1015.90, 15.00, 7,  10, 255, 0.000
64015370, 5301502, 2016-11-13 02:00:00, 18.73080, 113.32200,   0,  10,   5, 27.50, 1016.20, 15.00, 7,  13, 255, 0.000
64015370, 5301502, 2016-11-13 03:00:00, 18.72820, 113.31680,   0,  10,   7, 27.52, 1016.00, 15.00, 5,  25, 255, 0.000
64015370, 5301502, 2016-11-13 04:00:00, 18.72640, 113.31080,   0,  11,   5, 27.54, 1015.50, 15.00, 6,  10, 255, 0.000
64015370, 5301502, 2016-11-13 05:00:00, 18.72520, 113.30220,   0,  11,  10, 27.57, 1014.70, 15.00, 5,  15, 255, 0.000
64015370, 5301502, 2016-11-13 06:00:00, 18.72480, 113.29480,   0,  11,   7, 27.59, 1013.60, 15.00, 7,  22, 255, 0.000
64015370, 5301502, 2016-11-13 07:00:00, 18.72560, 113.28900,   0,  11,   7, 27.59, 1012.90, 15.00, 6,  12, 255, 0.000
64015370, 5301502, 2016-11-13 08:00:00, 18.72680, 113.28300,   0,  11,   7, 27.58, 1012.80, 15.00, 7,  11, 255, 0.000
64015370, 5301502, 2016-11-13 09:00:00, 18.72820, 113.27680,   0,  10,   6, 27.57, 1012.90, 15.00, 9,  10, 255, 0.000
64015370, 5301502, 2016-11-13 10:00:00, 18.72840, 113.27220,   0,  10,   5, 27.56, 1013.20, 14.80, 8,  20, 255, 0.000
64015370, 5301502, 2016-11-13 11:00:00, 18.72900, 113.26740,   0,  12,   8, 27.55, 1013.60, 15.00, 12,   9, 255, 0.000
64015370, 5301502, 2016-11-13 12:00:00, 18.73100, 113.26340,   0,  10,  11, 27.54, 1014.20, 14.80, 8,  13, 255, 0.000
64015370, 5301502, 2016-11-13 13:00:00, 18.73220, 113.25920,   0,  11,   8, 27.51, 1014.40, 14.80, 6,  17, 255, 0.000
64015370, 5301502, 2016-11-13 14:00:00, 18.73300, 113.25460,   0,  12,   7, 27.50, 1014.60, 14.80, 6,  20, 255, 0.000
64015370, 5301502, 2016-11-13 15:00:00, 18.73260, 113.25140,   0,  10,   6, 27.53, 1014.60, 14.80, 12,  11, 255, 0.000
64015370, 5301502, 2016-11-13 16:00:00, 18.73080, 113.24720,   0,  11,   7, 27.50, 1014.20, 14.80, 11,   9, 255, 0.000
64015370, 5301502, 2016-11-13 17:00:00, 18.72880, 113.24300,   0,  11,   7, 27.52, 1013.50, 14.80, 6,  10, 255, 0.000
64015370, 5301502, 2016-11-13 18:00:00, 18.72720, 113.23660,   0,  11,  10, 27.48, 1012.90, 14.80, 5,  19, 255, 0.000
64015370, 5301502, 2016-11-13 19:00:00, 18.72720, 113.22800,   0,  11,   4, 27.50, 1012.50, 14.80, 5,  14, 255, 0.000
64015370, 5301502, 2016-11-13 20:00:00, 18.72880, 113.21840,   0,  11,   5, 27.48, 1012.30, 14.80, 6,  19, 255, 0.000
64015370, 5301502, 2016-11-13 21:00:00, 18.73160, 113.20980,   0,  11,   5, 27.47, 1012.40, 14.80, 5,   8, 255, 0.000
64015370, 5301502, 2016-11-13 22:00:00, 18.73520, 113.20280,   0,  10,   8, 27.47, 1012.90, 14.80, 6,   9, 255, 0.000
64015370, 5301502, 2016-11-13 23:00:00, 18.74000, 113.19600,   0,  10,  10, 27.48, 1013.40, 14.80, 6,  12, 255, 0.000
64015370, 5301502, 2016-11-14 00:00:00, 18.74520, 113.19020,   0,  10,   8, 27.47, 1013.80, 14.80, 6,   9, 255, 0.000
64015370, 5301502, 2016-11-14 01:00:00, 18.74980, 113.18600,   0,   9,   6, 27.48, 1014.40, 14.80, 13,  11, 255, 0.000
64015370, 5301502, 2016-11-14 02:00:00, 18.75380, 113.18380,   0,  10,   4, 27.50, 1014.90, 14.80, 9,   9, 255, 0.000
64015370, 5301502, 2016-11-14 03:00:00, 18.75700, 113.18480,   0,  11,   5, 27.51, 1014.90, 14.80, 6,  14, 255, 0.000
64015370, 5301502, 2016-11-14 04:00:00, 18.75800, 113.18740,   0,  10,   8, 27.54, 1014.30, 14.80, 8,  13, 255, 0.000
64015370, 5301502, 2016-11-14 05:00:00, 18.75760, 113.19120,   0,  11,   6, 27.57, 1013.50, 14.80, 5,  10, 255, 0.000
64015370, 5301502, 2016-11-14 06:00:00, 18.75680, 113.19340,   0,  11,  11, 27.60, 1012.70, 14.80, 7,  13, 255, 0.000
64015370, 5301502, 2016-11-14 07:00:00, 18.75640, 113.19420,   0,  10,   2, 27.61, 1012.00, 14.80, 5,  15, 255, 0.000
